Tracking 29933 objects as of 2-Dec-2024
HD Live streaming from Space Station
objects crossing your sky now

USA 179

Track USA 179 now!
USA 179 is classified as:


NORAD ID: 28384
Int'l Code: 2004-034A
Perigee: 364.9 km
Apogee: 39,998.2 km
Inclination: 64.2 °
Period: 717.7 minutes
Semi major axis: 26552 km
RCS: Unknown
Launch date: August 31, 2004
Source: United States (US)
Launch site: AIR FORCE EASTERN TEST RANGE (AFETR)
Your satellite tracking list
Your tracking list is empty




NASA's NSSDC Master Catalog

Two Line Element Set (TLE):
1 28384U 04034A   24015.09920112 0.00001361  00000-0  00000-0 0    06
2 28384  64.1627 337.7764 7463182 262.2203  15.8184  2.00651957    00
Source of the keplerian elements: McCants